User: anonymous   Login
Location: *
(49.7115°N, 15.0136°E)
Time: 06:42:31
(UTC+00:00)
Language:

CZ-2C R/B - Orbit

View from above orbital plane
View from above orbital plane
View from above satellite
View from above satellite

Ground track
Ground track

The orbit data is extracted from the following two-line orbital elements,

1 28480U 04046B   20156.72216917  .00000003  00000-0  16775-4 0  9998
2 28480  98.0791 192.6554 0140610 262.7435 204.4646 14.25723221808620
Epoch (UTC): 04 June 2020 17:19:55
Eccentricity: 0.0140610
inclination: 98.0791°
perigee height: 705 km
apogee height: 907 km
right ascension of ascending node: 192.6554°
argument of perigee: 262.7435°
revolutions per day: 14.25723221
mean anomaly at epoch: 204.4646°
orbit number at epoch: 80862

The dashed part of the orbit path shows where the satellite is in the earth's shadow,  

DLR